Tracking 19193 objects as of 22-Jun-2018
HD Live streaming from Space Station
objects crossing your sky now

FLOCK 2K 14

Track FLOCK 2K 14 now!
10-day predictions
FLOCK 2K 14 is classified as:


NORAD ID: 42892
Int'l Code: 2017-042BV
Perigee: 452.6 km
Apogee: 472.2 km
Inclination: 97.0 °
Period: 93.7 minutes
Semi major axis: 6833 km
RCS: Unknown
Launch date: July 14, 2017
Source: United States (US)
Launch site: TYURATAM MISSILE AND SPACE COMPLEX (TTMTR)
aabbcc
Your satellite tracking list
Your tracking list is empty




NASA's NSSDC Master Catalog

Two Line Element Set (TLE):
1 42892U 17042BV  18172.74814576 +.00003531 +00000-0 +99669-4 0  9995
2 42892 096.9798 069.1824 0014387 083.2734 277.0148 15.36902523052344
Source of the keplerian elements: AFSPC